Location: Blue Sky Observatory
(43.1153°N, 70.9036°W)
Time: 00:46:56
(UTC-04:00)

Amateur Radio Satellites - All Passes

Search period start: 05 May 2016 00:16
Search period end: 06 May 2016 00:16
Location: Blue Sky Observatory, 43.1153°N, 70.9036°W

Satellite Date Start Highest point End Downlink Frequencies (MHz)
Time Altitude Azimuth
TIGRISAT 05 May 00:17:04 00:20:29 23° 294° (WNW) 00:23:50 435.000
QB50P1 05 May 00:17:16 00:21:31 81° 102° (ESE) 00:25:44 145.935-145.965
SWISSCUBE 05 May 00:31:06 00:32:46 12° 58° (ENE) 00:34:27 437.505
SPROUT 05 May 00:31:31 00:35:45 54° 260° (W) 00:40:01 437.525
BUGSAT 1 05 May 00:39:02 00:43:11 61° 100° (E) 00:47:16 437.445
ANTELSAT 05 May 00:43:44 00:45:38 13° 299° (WNW) 00:47:32 437.575/2403.000
DANDE 05 May 00:47:22 00:51:42 17° 65° (ENE) 00:56:30 436.750
AISAT 05 May 00:49:13 00:51:40 14° 269° (W) 00:54:07 437.250
NANOSAT C BR1 05 May 00:50:59 00:55:02 45° 288° (WNW) 00:59:01 145.865
TISAT 1 05 May 00:56:55 01:01:10 87° 78° (ENE) 01:05:28 437.305
AIST 1 05 May 00:59:07 01:03:07 36° 284° (WNW) 01:07:10
RS-15 05 May 01:00:12 01:10:02 29° 341° (NNW) 01:20:16 29.354- 29.394
BEESAT 05 May 01:01:51 01:05:23 21° 64° (ENE) 01:08:55 436.000
Oscar 19 05 May 01:06:18 01:09:47 18° 91° (E) 01:13:13 437.125/150
O/OREOS (USA 219) 05 May 01:08:53 01:12:47 29° 256° (WSW) 01:16:38 437.305
PCSat 05 May 01:16:05 01:21:01 36° 249° (WSW) 01:25:55 145.827
CUSAT 1 05 May 01:25:06 01:32:21 58° 76° (ENE) 01:40:17 437.405
GONETS M04 05 May 01:25:49 01:34:26 54° 284° (WNW) 01:43:05
JAS-2 05 May 01:33:08 01:40:54 61° 100° (E) 01:48:34 435.910
DUCHIFAT 1 05 May 01:43:39 01:46:00 15° 297° (WNW) 01:48:20 145.980
QB50P2 05 May 01:47:57 01:49:34 12° 299° (WNW) 01:51:10 145.880/145.840
POLYITAN 1 05 May 01:50:13 01:51:45 12° 299° (WNW) 01:53:16 437.675
Cosmos 2499 05 May 01:50:53 01:57:49 59° 282° (WNW) 02:04:52 435.465 / 435.565
POPSAT HIP 1 05 May 01:52:16 01:53:42 12° 299° (WNW) 01:55:08 437.405
QB50P1 05 May 01:55:45 01:56:39 11° 300° (WNW) 01:57:33 145.935-145.965
ITUPSAT 1 05 May 01:56:59 02:01:42 69° 73° (ENE) 02:06:26 437.325
BEESAT 3 05 May 02:04:22 02:08:01 34° 49° (NE) 02:11:39 437.485
SWISSCUBE 05 May 02:05:05 02:09:51 88° 256° (WSW) 02:14:37 437.505
BUGSAT 1 05 May 02:16:03 02:18:03 13° 298° (WNW) 02:20:03 437.445
BEESAT 2 05 May 02:16:17 02:19:48 29° 47° (NE) 02:23:17 435.950
DANDE 05 May 02:28:23 02:35:11 82° 80° (E) 02:43:23 436.750
KKS-1 05 May 02:28:59 02:32:16 20° 64° (ENE) 02:35:33 437.445
ITAMSAT 1 05 May 02:29:55 02:33:23 18° 92° (E) 02:36:53 435.822/435.867
BEESAT 05 May 02:38:18 02:42:52 46° 261° (W) 02:47:27 436.000
STARS 05 May 02:40:16 02:42:37 14° 61° (ENE) 02:44:59 437.465
Oscar 19 05 May 02:44:22 02:49:30 59° 288° (WNW) 02:54:34 437.125/150
MOZHAYETS 4 05 May 02:49:10 02:52:33 21° 65° (ENE) 02:55:54
Gurwin Techsat 1B 05 May 02:57:37 03:02:58 78° 103° (ESE) 03:08:16 435.225
CUSAT 1 05 May 03:07:45 03:14:13 33° 272° (W) 03:21:09 437.405
AO-7 05 May 03:07:58 03:13:40 20° 91° (E) 03:19:20 29.400- 29.500
RS-15 05 May 03:17:41 03:27:44 29° 17° (NNE) 03:37:57 29.354- 29.394
JAS-2 05 May 03:18:43 03:25:25 33° 298° (WNW) 03:32:08 435.910
GONETS M04 05 May 03:31:30 03:33:42 11° 309° (NW) 03:35:54
ITUPSAT 1 05 May 03:37:45 03:40:00 13° 270° (W) 03:42:16 437.325
BEESAT 3 05 May 03:42:25 03:45:33 23° 247° (WSW) 03:48:39 437.485
BEESAT 2 05 May 03:54:09 03:57:36 29° 245° (WSW) 04:01:03 435.950
YUBILEINY 05 May 03:54:48 03:59:55 16° 58° (ENE) 04:05:00 435.215
KKS-1 05 May 04:04:16 04:08:32 43° 261° (W) 04:12:50 437.445
AIST 2 05 May 04:07:32 04:11:16 31° 48° (NE) 04:14:58 435.215
ITAMSAT 1 05 May 04:08:09 04:13:14 59° 289° (WNW) 04:18:20 435.822/435.867
DANDE 05 May 04:12:37 04:17:34 21° 274° (W) 04:23:07 436.750
STARS 05 May 04:14:04 04:18:28 64° 258° (WSW) 04:22:54 437.465
MOZHAYETS 4 05 May 04:25:05 04:29:25 42° 262° (W) 04:33:47
Gurwin Techsat 1B 05 May 04:39:10 04:42:15 16° 301° (WNW) 04:45:21 435.225
CUBESAT XI-V 05 May 04:40:01 04:44:06 32° 68° (ENE) 04:48:12 437.345
Cosmos 2491 05 May 04:44:22 04:48:12 14° 73° (ENE) 04:52:02 435.465 / 435.565
AO-7 05 May 04:59:02 05:07:25 88° 292° (WNW) 05:15:47 29.400- 29.500
HORYU 2 05 May 05:21:22 05:25:45 60° 101° (ESE) 05:30:05 437.375
STRAND 1 05 May 05:23:41 05:24:47 11° 56° (NE) 05:25:53 437.568
SO-50 05 May 05:27:03 05:29:46 15° 108° (ESE) 05:32:30 436.795
RS-15 05 May 05:31:20 05:43:29 61° 47° (NE) 05:55:38 29.354- 29.394
ISS 05 May 05:36:13 05:38:06 15° 132° (SE) 05:39:59 145.825
AIST 2 05 May 05:46:07 05:49:41 28° 245° (WSW) 05:53:14 435.215
Cosmos 2504 05 May 05:49:17 05:54:49 21° 65° (ENE) 06:00:35 435.465 / 435.565
YUBILEINY 05 May 05:49:38 05:58:22 76° 80° (E) 06:07:06 435.215
CUTE-I 05 May 05:55:48 05:59:10 17° 91° (E) 06:02:30 437.470
CUBESAT XI-V 05 May 06:17:36 06:21:29 27° 265° (W) 06:25:25 437.345
NOAA 15 05 May 06:28:37 06:33:47 49° 100° (E) 06:38:55 137.62
NOAA 18 05 May 06:28:46 06:33:57 42° 99° (E) 06:39:06 137.9125
Cosmos 2491 05 May 06:34:33 06:43:19 72° 93° (E) 06:52:07 435.465 / 435.565
BRITE-PL 05 May 06:36:21 06:41:49 44° 97° (E) 06:47:07 437.365/2234.400
Cubesat XI-IV 05 May 06:39:48 06:44:50 42° 98° (E) 06:49:52 437.490
AO-7 05 May 06:53:07 06:59:08 23° 310° (NW) 07:05:10 29.400- 29.500
STRAND 1 05 May 06:58:00 07:03:05 76° 73° (ENE) 07:08:11 437.568
HORYU 2 05 May 06:59:20 07:01:49 15° 298° (WNW) 07:04:18 437.375
SO-50 05 May 07:04:45 07:09:40 75° 306° (NW) 07:14:35 436.795
ISS 05 May 07:10:56 07:14:11 73° 328° (NNW) 07:17:27 145.825
LilacSat-2 05 May 07:12:19 07:16:09 85° 279° (W) 07:19:54 437.200
DOVE 4 05 May 07:18:51 07:23:05 26° 93° (E) 07:27:07 437.250
CUTE-I 05 May 07:34:23 07:39:40 65° 288° (WNW) 07:44:55 437.470
GOMX 1 05 May 07:35:04 07:40:33 75° 102° (ESE) 07:45:42 467.674
M-CUBED/EXP-1 PRIME 05 May 07:36:22 07:39:52 32° 101° (ESE) 07:43:06 437.505
Cosmos 2504 05 May 07:41:21 07:49:01 81° 264° (W) 07:57:14 435.465 / 435.565
RS-15 05 May 07:44:20 07:55:44 47° 251° (WSW) 08:07:07 29.354- 29.394
CINEMA 3 05 May 07:44:35 07:46:51 13° 88° (E) 07:49:03 145.822/145.860
YUBILEINY 05 May 07:47:50 07:54:13 24° 281° (W) 08:00:38 435.215
AUBIESAT-1 05 May 07:52:37 07:56:15 40° 104° (ESE) 07:59:36 437.475
SEEDS 05 May 07:53:47 07:54:52 11° 89° (E) 07:55:58 437.485
PRISM 05 May 08:07:28 08:11:32 81° 76° (ENE) 08:15:40 437.425
NOAA 15 05 May 08:09:05 08:13:14 24° 297° (WNW) 08:17:23 137.62
NOAA 18 05 May 08:09:50 08:14:24 28° 296° (WNW) 08:18:58 137.9125
BRITE-PL 05 May 08:15:12 08:20:01 29° 295° (WNW) 08:24:45 437.365/2234.400
AAUSAT CUBESAT 2 05 May 08:19:54 08:21:41 12° 90° (E) 08:23:27 437.432
Cubesat XI-IV 05 May 08:20:17 08:24:43 27° 296° (WNW) 08:29:08 437.490
HO-68 05 May 08:28:23 08:35:12 44° 99° (E) 08:41:57 435.675
CANX-2 05 May 08:32:12 08:36:17 46° 99° (E) 08:40:22 2200.000
Cosmos 2491 05 May 08:33:47 08:40:58 27° 295° (WNW) 08:48:13 435.465 / 435.565
PHONESAT 2.4 05 May 08:39:29 08:41:33 16° 154° (SSE) 08:43:37 2401.200-2431.200
STRAND 1 05 May 08:40:24 08:42:48 13° 271° (W) 08:45:13 437.568
SO-50 05 May 08:48:03 08:50:59 16° 325° (NW) 08:53:57 436.795
ISS 05 May 08:48:27 08:51:03 21° 347° (NNW) 08:53:41 145.825
DOVE 4 05 May 08:56:11 09:00:52 38° 291° (WNW) 09:05:19 437.250
Oscar 11 05 May 09:02:04 09:04:39 15° 91° (E) 09:07:14 145.826/435.025
CUTE 1.7 + AOD 2 05 May 09:04:24 09:08:39 86° 281° (W) 09:12:53 437.475
M-CUBED/EXP-1 PRIME 05 May 09:11:22 09:14:13 20° 301° (WNW) 09:16:55 437.505
GOMX 1 05 May 09:14:35 09:17:54 17° 300° (WNW) 09:21:08 467.674
FUNcube-1 05 May 09:17:20 09:20:11 18° 92° (E) 09:23:00 145.935
CINEMA 3 05 May 09:19:55 09:24:28 60° 286° (WNW) 09:28:47 145.822/145.860
UNISAT 6 05 May 09:23:08 09:26:56 26° 67° (ENE) 09:30:42 437.425
COMPASS 1 05 May 09:25:12 09:29:23 85° 105° (ESE) 09:33:34 437.405
SEEDS 05 May 09:26:51 09:31:01 66° 285° (WNW) 09:35:11 437.485
AUBIESAT-1 05 May 09:28:01 09:30:23 16° 302° (WNW) 09:32:40 437.475
UWE-3 05 May 09:35:42 09:39:47 44° 99° (E) 09:43:45 435.000/436.395/437.385
Cosmos 2504 05 May 09:37:21 09:41:15 15° 282° (WNW) 09:45:15 435.465 / 435.565
TIGRISAT 05 May 09:39:15 09:43:26 35° 70° (ENE) 09:47:33 435.000
GONETS M04 05 May 09:39:29 09:45:04 18° 59° (ENE) 09:50:37
CUBEBUG 2 05 May 09:48:50 09:53:10 88° 285° (WNW) 09:57:21 437.445
AAUSAT CUBESAT 2 05 May 09:53:27 09:57:32 57° 286° (WNW) 10:01:36 437.432
ZACube-1 05 May 10:00:09 10:04:17 56° 100° (E) 10:08:21 437.345
ANTELSAT 05 May 10:04:20 10:08:56 66° 74° (ENE) 10:13:27 437.575/2403.000
CANX-2 05 May 10:09:05 10:11:47 17° 296° (WNW) 10:14:30 2200.000
NANOSAT C BR1 05 May 10:10:00 10:12:27 15° 63° (ENE) 10:14:55 145.865
PHONESAT 2.4 05 May 10:14:57 10:17:58 43° 170° (S) 10:20:58 2401.200-2431.200
HO-68 05 May 10:16:19 10:22:48 39° 297° (WNW) 10:29:15 435.675
ISS 05 May 10:25:52 10:28:21 19° 8° (N) 10:30:48 145.825
Oscar 11 05 May 10:36:54 10:41:04 49° 288° (WNW) 10:45:13 145.826/435.025
HUMSAT D 05 May 10:39:47 10:43:37 38° 98° (E) 10:47:25 437.325/437.525
DELFI C3 05 May 10:44:31 10:48:32 78° 283° (WNW) 10:52:31 145.870
AO-85 05 May 10:48:52 10:51:42 14° 107° (ESE) 10:54:31 145.980
FUNcube-1 05 May 10:52:43 10:56:37 39° 289° (WNW) 11:00:28 145.935
DUCHIFAT 1 05 May 10:59:08 11:03:12 45° 72° (ENE) 11:07:17 145.980
UNISAT 6 05 May 10:59:18 11:03:30 34° 263° (W) 11:07:40 437.425
QB50P2 05 May 11:03:17 11:07:29 59° 73° (ENE) 11:11:44 145.880/145.840
AIST 1 05 May 11:04:36 11:08:58 58° 79° (E) 11:13:18
POLYITAN 1 05 May 11:05:27 11:09:41 60° 74° (ENE) 11:13:56 437.675
POPSAT HIP 1 05 May 11:07:18 11:11:32 61° 73° (ENE) 11:15:46 437.405
QB50P1 05 May 11:10:13 11:14:28 67° 75° (ENE) 11:18:44 145.935-145.965
UWE-3 05 May 11:13:09 11:15:53 17° 296° (WNW) 11:18:35 435.000/436.395/437.385
TIGRISAT 05 May 11:16:23 11:20:09 25° 265° (W) 11:23:55 435.000
50 SAT 05 May 11:26:32 11:29:03 17° 94° (E) 11:31:34 437.505
BUGSAT 1 05 May 11:29:18 11:33:22 47° 72° (ENE) 11:37:29 437.445
CUBEBUG 1 05 May 11:29:29 11:32:41 19° 93° (E) 11:35:51 437.445
ESTCUBE 1 05 May 11:29:54 11:33:48 27° 96° (E) 11:37:40 437.505/2401.250
GONETS M04 05 May 11:34:37 11:43:27 81° 82° (E) 11:52:09
ZACube-1 05 May 11:37:58 11:40:06 14° 298° (WNW) 11:42:14 437.345
Cosmos 2499 05 May 11:39:03 11:46:37 52° 76° (ENE) 11:54:44 435.465 / 435.565
NANOSAT C BR1 05 May 11:43:34 11:47:44 54° 260° (W) 11:51:58 145.865
ANTELSAT 05 May 11:43:55 11:46:02 13° 270° (W) 11:48:10 437.575/2403.000
JAS-2 05 May 11:47:05 11:52:21 29° 60° (ENE) 11:58:08 435.910
DX 1 05 May 11:51:00 11:54:47 28° 96° (E) 11:58:32 434.975-435.025
PHONESAT 2.4 05 May 11:51:34 11:54:37 48° 186° (S) 11:57:41 2401.200-2431.200
UKube-1 05 May 11:52:26 11:55:56 23° 95° (E) 11:59:25 .
ISS 05 May 12:02:10 12:05:21 49° 27° (NNE) 12:08:32 145.825
VELOX 1 05 May 12:03:32 12:07:48 43° 99° (E) 12:12:03 145.980
HUMSAT D 05 May 12:16:09 12:18:59 18° 294° (WNW) 12:21:49 437.325/437.525
SPROUT 05 May 12:17:03 12:20:30 23° 94° (E) 12:23:56 437.525
Oscar 19 05 May 12:23:44 12:28:10 29° 65° (ENE) 12:32:36 437.125/150
AO-85 05 May 12:26:02 12:31:31 89° 298° (WNW) 12:36:57 145.980
AISAT 05 May 12:35:56 12:40:26 81° 284° (WNW) 12:44:53 437.250
DUCHIFAT 1 05 May 12:36:24 12:39:08 17° 268° (W) 12:41:52 145.980
QB50P2 05 May 12:41:41 12:43:40 13° 270° (W) 12:45:39 145.880/145.840
TISAT 1 05 May 12:41:52 12:43:40 12° 90° (E) 12:45:26 437.305
Gurwin Techsat 1B 05 May 12:41:56 12:45:36 19° 61° (ENE) 12:49:16 435.225
POLYITAN 1 05 May 12:43:58 12:45:52 13° 270° (W) 12:47:48 437.675
AIST 1 05 May 12:44:03 12:46:01 13° 277° (W) 12:47:59
POPSAT HIP 1 05 May 12:45:52 12:47:42 12° 270° (W) 12:49:32 437.405
QB50P1 05 May 12:49:19 12:50:41 11° 271° (W) 12:52:04 145.935-145.965
50 SAT 05 May 12:59:39 13:02:55 30° 289° (WNW) 13:06:10 437.505
CUBEBUG 1 05 May 13:04:57 13:09:09 42° 289° (WNW) 13:13:19 437.445
BUGSAT 1 05 May 13:06:24 13:09:00 16° 268° (W) 13:11:37 437.445
ESTCUBE 1 05 May 13:06:36 13:10:35 31° 292° (WNW) 13:14:33 437.505/2401.250
DX 1 05 May 13:27:09 13:30:55 29° 293° (WNW) 13:34:41 434.975-435.025
UKube-1 05 May 13:28:08 13:32:02 33° 291° (WNW) 13:35:54 .
PHONESAT 2.4 05 May 13:28:38 13:31:07 21° 203° (SSW) 13:33:37 2401.200-2431.200
JAS-2 05 May 13:30:59 13:36:55 54° 262° (W) 13:43:43 435.910
Cosmos 2499 05 May 13:32:38 13:39:27 34° 274° (W) 13:46:42 435.465 / 435.565
GONETS M04 05 May 13:33:04 13:39:09 22° 282° (WNW) 13:45:13
ISS 05 May 13:38:59 13:41:38 23° 225° (SW) 13:44:15 145.825
VELOX 1 05 May 13:40:44 13:43:59 20° 296° (WNW) 13:47:12 145.980
O/OREOS (USA 219) 05 May 13:42:50 13:46:44 28° 104° (ESE) 13:50:38 437.305
ITAMSAT 1 05 May 13:48:30 13:53:00 31° 66° (ENE) 13:57:30 435.822/435.867
SPROUT 05 May 13:52:40 13:56:30 32° 291° (WNW) 14:00:18 437.525
SO-50 05 May 13:55:46 13:59:25 21° 40° (NE) 14:02:59 436.795
ITUPSAT 1 05 May 13:57:41 14:00:39 16° 91° (E) 14:03:36 437.325
Oscar 19 05 May 14:02:34 14:07:20 37° 263° (W) 14:12:09 437.125/150
SWISSCUBE 05 May 14:04:59 14:08:38 22° 93° (E) 14:12:17 437.505
AO-7 05 May 14:07:52 14:14:56 33° 56° (NE) 14:22:01 29.400- 29.500
AO-85 05 May 14:08:48 14:12:45 20° 322° (NW) 14:16:38 145.980
TISAT 1 05 May 14:15:32 14:19:42 59° 287° (WNW) 14:23:49 437.305
PCSat 05 May 14:16:02 14:20:22 25° 108° (ESE) 14:24:44 145.827
Gurwin Techsat 1B 05 May 14:19:48 14:25:03 62° 259° (WSW) 14:30:21 435.225
CUSAT 1 05 May 14:31:22 14:34:48 36° 90° (E) 14:39:15 437.405
BEESAT 05 May 14:37:13 14:41:43 40° 98° (E) 14:46:12 436.000
O/OREOS (USA 219) 05 May 15:21:54 15:26:02 32° 301° (WNW) 15:30:10 437.305
ITAMSAT 1 05 May 15:27:42 15:32:23 34° 263° (W) 15:37:05 435.822/435.867
ITUPSAT 1 05 May 15:34:09 15:38:50 57° 288° (WNW) 15:43:30 437.325
SO-50 05 May 15:35:40 15:40:21 64° 240° (WSW) 15:44:52 436.795
DANDE 05 May 15:41:13 15:44:16 86° 93° (E) 15:48:13 436.750
SWISSCUBE 05 May 15:42:07 15:46:36 42° 290° (WNW) 15:51:05 437.505
KKS-1 05 May 15:54:13 15:58:15 32° 97° (E) 16:02:14 437.445
PCSat 05 May 15:58:11 16:03:27 50° 306° (NW) 16:08:44 145.827
AO-7 05 May 15:59:03 16:07:13 63° 256° (WSW) 16:15:28 29.400- 29.500
STARS 05 May 16:03:12 16:06:34 21° 94° (E) 16:09:54 437.465
NOAA 15 05 May 16:13:37 16:15:54 13° 57° (ENE) 16:18:12 137.62
CUSAT 1 05 May 16:14:27 16:17:20 19° 299° (WNW) 16:20:47 437.405
BEESAT 05 May 16:15:31 16:19:16 24° 295° (WNW) 16:23:01 436.000
MOZHAYETS 4 05 May 16:18:50 16:23:09 40° 98° (E) 16:27:27
NOAA 18 05 May 16:18:55 16:21:39 14° 56° (NE) 16:24:23 137.9125
HORYU 2 05 May 16:20:01 16:24:25 62° 73° (ENE) 16:28:50 437.375
Cubesat XI-IV 05 May 16:27:15 16:28:51 11° 56° (NE) 16:30:27 437.490
Cosmos 2491 05 May 16:44:04 16:52:07 37° 70° (ENE) 17:00:03 435.465 / 435.565
YUBILEINY 05 May 16:59:33 17:04:32 17° 76° (ENE) 17:09:30 435.215
GOMX 1 05 May 17:08:58 17:11:14 13° 57° (ENE) 17:13:33 467.674
CUTE-I 05 May 17:18:09 17:22:46 31° 66° (ENE) 17:27:23 437.470
KKS-1 05 May 17:31:00 17:34:40 26° 294° (WNW) 17:38:20 437.445
BEESAT 3 05 May 17:33:11 17:36:55 43° 118° (ESE) 17:40:41 437.485
STARS 05 May 17:38:58 17:43:02 37° 291° (WNW) 17:47:05 437.465
PCSat 05 May 17:46:18 17:48:12 12° 328° (NNW) 17:50:05 145.827
BEESAT 2 05 May 17:46:35 17:50:13 35° 117° (ESE) 17:53:53 435.950
BRITE-PL 05 May 17:47:45 17:52:32 50° 71° (ENE) 17:57:43 437.365/2234.400
NOAA 15 05 May 17:49:35 17:54:51 86° 79° (E) 18:00:11 137.62
LilacSat-2 05 May 17:54:54 17:58:40 52° 74° (ENE) 18:02:27 437.200
NOAA 18 05 May 17:55:59 18:01:30 88° 76° (ENE) 18:07:02 137.9125
MOZHAYETS 4 05 May 17:56:34 18:00:04 22° 295° (WNW) 18:03:34
HORYU 2 05 May 17:59:17 18:01:23 13° 269° (W) 18:03:30 437.375
AO-7 05 May 17:59:53 18:01:36 11° 275° (W) 18:03:20 29.400- 29.500
Cubesat XI-IV 05 May 18:02:42 18:08:00 75° 74° (ENE) 18:13:21 437.490
CUBESAT XI-V 05 May 18:12:03 18:16:46 70° 102° (ESE) 18:21:27 437.345
M-CUBED/EXP-1 PRIME 05 May 18:22:25 18:27:02 57° 68° (ENE) 18:31:33 437.505
DOVE 4 05 May 18:24:25 18:28:56 31° 67° (ENE) 18:33:34 437.250
Cosmos 2504 05 May 18:33:03 18:36:12 13° 77° (ENE) 18:39:19 435.465 / 435.565
AUBIESAT-1 05 May 18:38:20 18:42:57 69° 69° (ENE) 18:47:26 437.475
Cosmos 2491 05 May 18:40:47 18:49:12 51° 271° (W) 18:57:31 435.465 / 435.565
GOMX 1 05 May 18:43:15 18:48:23 84° 76° (ENE) 18:53:49 467.674
CINEMA 3 05 May 18:46:26 18:49:43 18° 63° (ENE) 18:52:58 145.822/145.860
YUBILEINY 05 May 18:51:11 18:59:55 84° 96° (E) 19:08:40 435.215
CUTE-I 05 May 18:57:51 19:02:43 36° 263° (W) 19:07:36 437.470
HO-68 05 May 18:58:10 19:04:35 37° 62° (ENE) 19:11:00 435.675
STRAND 1 05 May 19:08:07 19:12:11 23° 94° (E) 19:16:14 437.568
BEESAT 3 05 May 19:11:46 19:14:49 21° 316° (NW) 19:17:53 437.485
AAUSAT CUBESAT 2 05 May 19:12:58 19:13:27 10° 61° (ENE) 19:13:56 437.432
CUBEBUG 2 05 May 19:14:59 19:15:50 10° 60° (ENE) 19:16:42 437.445
AO-85 05 May 19:18:03 19:21:28 18° 36° (NE) 19:24:40 145.980
BEESAT 2 05 May 19:24:50 19:28:10 25° 315° (NW) 19:31:29 435.950
CANX-2 05 May 19:25:51 19:29:44 37° 71° (ENE) 19:33:37 2200.000
BRITE-PL 05 May 19:27:40 19:31:22 21° 270° (W) 19:35:16 437.365/2234.400
LilacSat-2 05 May 19:31:46 19:33:17 12° 270° (W) 19:34:48 437.200
NOAA 15 05 May 19:33:17 19:35:19 12° 272° (W) 19:37:21 137.62
NOAA 18 05 May 19:40:35 19:42:51 12° 271° (W) 19:45:07 137.9125
AIST 2 05 May 19:43:49 19:47:45 44° 118° (ESE) 19:51:43 435.215
Cubesat XI-IV 05 May 19:45:51 19:48:39 14° 271° (W) 19:51:28 437.490
CUBESAT XI-V 05 May 19:51:04 19:53:35 14° 299° (WNW) 19:56:04 437.345
PRISM 05 May 19:51:06 19:51:35 10° 89° (E) 19:52:03 437.425
CUTE 1.7 + AOD 2 05 May 19:57:40 20:01:51 74° 77° (ENE) 20:06:04 437.475
RS-15 05 May 19:58:06 20:07:16 30° 103° (ESE) 20:16:47 29.354- 29.394
Oscar 11 05 May 19:58:21 20:00:43 15° 63° (ENE) 20:03:06 145.826/435.025
M-CUBED/EXP-1 PRIME 05 May 19:58:46 20:01:49 17° 263° (W) 20:04:51 437.505
DOVE 4 05 May 20:01:45 20:06:30 36° 265° (W) 20:11:23 437.250
FUNcube-1 05 May 20:13:52 20:16:54 18° 65° (ENE) 20:19:55 145.935
AUBIESAT-1 05 May 20:15:26 20:17:46 14° 264° (W) 20:20:05 437.475
COMPASS 1 05 May 20:16:37 20:20:41 63° 74° (ENE) 20:24:47 437.405
SEEDS 05 May 20:19:07 20:23:17 87° 256° (WSW) 20:27:29 437.485
Cosmos 2504 05 May 20:21:05 20:28:20 84° 97° (E) 20:35:32 435.465 / 435.565
CINEMA 3 05 May 20:21:21 20:26:20 63° 259° (W) 20:31:19 145.822/145.860
GOMX 1 05 May 20:24:59 20:27:11 13° 274° (W) 20:29:27 467.674
UWE-3 05 May 20:33:03 20:37:25 43° 72° (ENE) 20:41:42 435.000/436.395/437.385
AAUSAT CUBESAT 2 05 May 20:44:12 20:48:19 79° 258° (WSW) 20:52:27 437.432
HO-68 05 May 20:45:21 20:52:08 46° 261° (W) 20:59:00 435.675
STRAND 1 05 May 20:46:42 20:51:33 44° 291° (WNW) 20:56:22 437.568
CUBEBUG 2 05 May 20:47:00 20:51:44 85° 76° (ENE) 20:56:23 437.445
YUBILEINY 05 May 20:51:25 20:57:51 22° 298° (WNW) 21:04:19 435.215
ZACube-1 05 May 20:56:21 21:00:42 51° 73° (ENE) 21:05:01 437.345
AO-85 05 May 20:57:49 21:02:38 81° 240° (WSW) 21:06:59 145.980
CANX-2 05 May 21:02:39 21:05:43 19° 267° (W) 21:08:46 2200.000
AIST 2 05 May 21:23:09 21:26:26 22° 316° (NW) 21:29:44 435.215
PRISM 05 May 21:23:11 21:27:22 71° 285° (WNW) 21:31:31 437.425
DELFI C3 05 May 21:31:11 21:35:05 67° 75° (ENE) 21:39:01 145.870
HUMSAT D 05 May 21:31:58 21:35:40 31° 70° (ENE) 21:39:21 437.325/437.525
Oscar 11 05 May 21:32:10 21:36:23 57° 259° (W) 21:40:40 145.826/435.025
FUNcube-1 05 May 21:48:29 21:52:49 47° 261° (W) 21:57:06 145.935
COMPASS 1 05 May 21:55:26 21:56:41 11° 271° (W) 21:57:54 437.405
ANTELSAT 05 May 21:57:22 21:58:56 12° 89° (E) 22:00:29 437.575/2403.000
AISAT 05 May 22:01:02 22:02:32 12° 59° (ENE) 22:04:01 437.250
RS-15 05 May 22:07:02 22:18:24 79° 306° (NW) 22:30:29 29.354- 29.394
50 SAT 05 May 22:08:11 22:08:54 10° 63° (ENE) 22:09:34 437.505
UWE-3 05 May 22:10:40 22:14:02 20° 267° (W) 22:17:22 435.000/436.395/437.385
Cosmos 2504 05 May 22:18:04 22:22:41 18° 297° (WNW) 22:27:20 435.465 / 435.565
CUBEBUG 1 05 May 22:26:40 22:29:45 19° 64° (ENE) 22:32:51 437.445
CUBEBUG 2 05 May 22:28:18 22:28:54 10° 272° (W) 22:29:30 437.445
ESTCUBE 1 05 May 22:30:25 22:34:15 29° 68° (ENE) 22:38:06 437.505/2401.250
ZACube-1 05 May 22:34:28 22:37:16 16° 269° (W) 22:40:02 437.345
GONETS M04 05 May 22:43:52 22:49:26 19° 77° (ENE) 22:55:01
DX 1 05 May 22:47:26 22:51:09 28° 67° (ENE) 22:54:53 434.975-435.025
UKube-1 05 May 22:48:02 22:51:27 23° 66° (ENE) 22:54:54 .
UNISAT 6 05 May 22:49:44 22:53:53 44° 99° (E) 22:57:58 437.425
VELOX 1 05 May 23:01:35 23:05:47 43° 71° (ENE) 23:10:01 145.980
PCSat 05 May 23:01:58 23:06:39 28° 47° (NE) 23:11:18 145.827
TIGRISAT 05 May 23:06:01 23:10:18 64° 101° (E) 23:14:30 435.000
HUMSAT D 05 May 23:07:58 23:11:20 23° 266° (W) 23:14:40 437.325/437.525
SPROUT 05 May 23:11:49 23:15:04 21° 66° (ENE) 23:18:21 437.525
NANOSAT C BR1 05 May 23:27:38 23:30:54 21° 94° (E) 23:34:08 145.865
ANTELSAT 05 May 23:31:49 23:36:06 63° 286° (WNW) 23:40:18 437.575/2403.000
AISAT 05 May 23:33:53 23:38:20 82° 255° (WSW) 23:42:50 437.250
AIST 1 05 May 23:35:03 23:38:52 32° 91° (E) 23:42:46
TISAT 1 05 May 23:35:12 23:36:49 12° 61° (ENE) 23:38:25 437.305
50 SAT 05 May 23:38:35 23:42:11 59° 259° (W) 23:45:48 437.505
O/OREOS (USA 219) 05 May 23:51:10 23:55:40 63° 65° (ENE) 00:00:06 437.305
CUBEBUG 1 06 May 00:01:30 00:05:42 44° 261° (W) 00:09:57 437.445
ESTCUBE 1 06 May 00:07:08 00:11:00 29° 264° (W) 00:14:55 437.505/2401.250
